Weather History for KLNS - October, 2012

Change the Weather History Date:

Tuesday, October 30, 2012

  Actual Average Record
Temperature  
Mean Temperature 46 °F -  
Max Temperature 50 °F 59 °F 73 °F (1996)
Min Temperature 41 °F 34 °F 26 °F (1985)
Degree Days  
Heating Degree Days 19    
Moisture  
Dew Point 39 °F    
Average Humidity 87    
Maximum Humidity 93    
Minimum Humidity 81    
Precipitation  
Precipitation 0.47 in - - ()
Sea Level Pressure  
Sea Level Pressure 29.23 in    
Wind  
Wind Speed 15 mph (SSE)    
Max Wind Speed 29 mph    
Max Gust Speed 38 mph    
Visibility 7 miles    
Events Rain    
Averages and records for this station are not official NWS values.
T = Trace of Precipitation, MM = Missing Value Source: NWS Daily Summary

Daily Weather History Graph

Daily Weather History Graph

Search for Another Location

Airport or City:

Trip Planner

Search our weather history database for the weather conditions in past years. The results will help you decide how hot, cold, wet, or windy it might be!

Date:

Astronomy

Oct. 30, 2012 Rise Set
Actual Time 7:32 AM EDT 6:04 PM EDT
Civil Twilight 7:04 AM EDT 6:32 PM EDT
Nautical Twilight 6:32 AM EDT 7:04 PM EDT
Astronomical Twilight 6:01 AM EDT 7:35 PM EDT
Moon 6:32 PM EDT (10/30) 8:17 AM EDT (10/30)
Length of Visible Light 11h 27m
Length of Day
10h 31m
Full, 99% of the Moon is Illuminated
Oct 30
Full
Nov 6
Last Quarter
Nov 13
New
Nov 20
First Quarter
Nov 28
Full

Hourly Weather History & Observations

Time (EDT) Temp. Windchill Dew Point Humidity Pressure Visibility Wind Dir Wind Speed Gust Speed Precip Events Conditions
12:26 AM 51.8 °F - 48.2 °F 88% 28.41 in 2.5 mi ENE 28.8 mph 38.0 mph 0.02 in Rain Rain
12:53 AM 50.0 °F - 46.9 °F 89% 28.45 in 3.0 mi East 25.3 mph 38.0 mph 0.05 in Rain Light Rain
5:25 AM 44.6 °F 36.6 °F 39.2 °F 81% 28.94 in 10.0 mi SE 19.6 mph 35.7 mph 0.00 in Rain Light Rain
5:53 AM 43.0 °F 34.8 °F 39.0 °F 86% 28.98 in 10.0 mi SE 18.4 mph 29.9 mph 0.01 in Rain Light Rain
6:07 AM 42.8 °F 34.5 °F 39.2 °F 87% 28.98 in 10.0 mi SE 18.4 mph 24.2 mph 0.00 in Rain Light Rain
6:53 AM 43.0 °F 35.7 °F 39.9 °F 89% 29.04 in 8.0 mi SE 15.0 mph - 0.01 in Rain Light Rain
7:29 AM 42.8 °F 36.2 °F 39.2 °F 87% 29.07 in 4.0 mi SE 12.7 mph 19.6 mph 0.01 in Rain Light Rain
7:53 AM 43.0 °F 35.4 °F 39.9 °F 89% 29.09 in 7.0 mi SE 16.1 mph - 0.02 in Rain Light Rain
8:01 AM 42.8 °F 36.2 °F 39.2 °F 87% 29.10 in 5.0 mi SE 12.7 mph - 0.00 in Rain Light Rain
8:22 AM 42.8 °F 36.6 °F 39.2 °F 87% 29.11 in 3.0 mi SSE 11.5 mph - 0.01 in Rain Light Rain
8:31 AM 42.8 °F 38.6 °F 41.0 °F 93% 29.12 in 2.0 mi South 6.9 mph - 0.02 in Rain Rain
8:41 AM 42.8 °F 35.8 °F 39.2 °F 87% 29.13 in 1.8 mi SSE 13.8 mph 19.6 mph 0.05 in Rain Heavy Rain
8:48 AM 42.8 °F 35.4 °F 39.2 °F 87% 29.13 in 2.5 mi South 15.0 mph 21.9 mph 0.07 in Rain Rain
8:50 AM 42.8 °F 35.8 °F 39.2 °F 87% 29.13 in 2.5 mi SSE 13.8 mph 21.9 mph 0.07 in Rain Rain
8:53 AM 42.1 °F 35.7 °F 39.0 °F 89% 29.14 in 2.0 mi SSE 11.5 mph 21.9 mph 0.08 in Rain Rain
9:03 AM 42.8 °F 36.6 °F 39.2 °F 87% 29.15 in 3.0 mi South 11.5 mph - 0.01 in Rain Rain
9:53 AM 43.0 °F 38.2 °F 39.9 °F 89% 29.18 in 6.0 mi SSE 8.1 mph - 0.05 in Rain Rain
10:04 AM 42.8 °F 37.5 °F 39.2 °F 87% 29.18 in 5.0 mi SSE 9.2 mph - 0.01 in Rain Light Rain
10:29 AM 42.8 °F 37.5 °F 39.2 °F 87% 29.20 in 6.0 mi South 9.2 mph - 0.03 in Rain Light Rain
11:37 AM 42.8 °F 38.0 °F 39.2 °F 87% 29.23 in 5.0 mi South 8.1 mph - 0.04 in Rain Light Rain
11:53 AM 42.1 °F 37.1 °F 39.0 °F 89% 29.25 in 7.0 mi SSE 8.1 mph - 0.05 in Rain Light Rain
12:00 PM 42.8 °F 39.3 °F 39.2 °F 87% 29.25 in 9.0 mi South 5.8 mph - 0.01 in Rain Light Rain
12:08 PM 42.8 °F 38.6 °F 39.2 °F 87% 29.25 in 9.0 mi Variable 6.9 mph - 0.01 in Rain Light Rain
12:15 PM 42.8 °F 37.0 °F 39.2 °F 87% 29.25 in 8.0 mi SSE 10.4 mph - 0.02 in Rain Light Rain
12:26 PM 44.6 °F 37.4 °F 39.2 °F 81% 29.25 in 9.0 mi SSE 16.1 mph 20.7 mph 0.03 in Rain Light Rain
12:30 PM 44.6 °F 39.2 °F 39.2 °F 81% 29.26 in 10.0 mi SSE 10.4 mph 20.7 mph 0.03 in Rain Light Rain
12:41 PM 42.8 °F 35.4 °F 39.2 °F 87% 29.26 in 8.0 mi SSE 15.0 mph 20.7 mph 0.04 in Rain Light Rain
12:53 PM 43.0 °F 35.7 °F 39.0 °F 86% 29.27 in 9.0 mi South 15.0 mph - 0.04 in Rain Light Rain
1:17 PM 42.8 °F 36.2 °F 39.2 °F 87% 29.28 in 5.0 mi SE 12.7 mph - 0.01 in Rain Light Rain
1:38 PM 42.8 °F 35.8 °F 39.2 °F 87% 29.28 in 3.0 mi SE 13.8 mph - 0.03 in Rain Rain
1:53 PM 42.1 °F 35.2 °F 39.0 °F 89% 29.29 in 3.0 mi SE 12.7 mph - 0.04 in Rain Light Rain
2:15 PM 42.8 °F 36.6 °F 39.2 °F 87% 29.30 in 3.0 mi SE 11.5 mph - 0.01 in Rain Light Rain
2:30 PM 42.8 °F 36.6 °F 37.4 °F 81% 29.30 in 3.0 mi SE 11.5 mph - 0.03 in Rain Light Rain
2:53 PM 42.1 °F 35.2 °F 37.9 °F 85% 29.31 in 8.0 mi SSE 12.7 mph - 0.03 in Rain Light Rain
3:28 PM 42.8 °F 37.5 °F 39.2 °F 87% 29.32 in 5.0 mi SSE 9.2 mph - 0.01 in Rain Light Rain
3:53 PM 42.1 °F 35.2 °F 39.0 °F 89% 29.34 in 9.0 mi SSE 12.7 mph - 0.03 in Rain Light Rain
4:27 PM 42.8 °F 37.5 °F 37.4 °F 81% 29.35 in 10.0 mi SSE 9.2 mph - 0.00 in Rain Light Rain
4:53 PM 42.1 °F 36.6 °F 37.9 °F 85% 29.36 in 10.0 mi SSE 9.2 mph - 0.01 in Rain Light Rain
5:18 PM 42.8 °F 38.0 °F 37.4 °F 81% 29.37 in 10.0 mi SSE 8.1 mph - 0.00 in Rain Light Rain
5:53 PM 41.0 °F 35.8 °F 37.9 °F 89% 29.39 in 10.0 mi SSE 8.1 mph - 0.01 in Rain Light Rain
6:53 PM 41.0 °F 36.4 °F 37.9 °F 89% 29.42 in 10.0 mi SE 6.9 mph - 0.00 in Rain Light Rain
7:28 PM 41.0 °F 37.1 °F 37.4 °F 87% 29.42 in 10.0 mi SE 5.8 mph - 0.01 in Rain Light Rain
7:49 PM 41.0 °F 38.0 °F 37.4 °F 87% 29.42 in 10.0 mi SE 4.6 mph - 0.01 in Rain Light Rain
8:17 PM 41.0 °F 36.4 °F 37.4 °F 87% 29.43 in 10.0 mi SSE 6.9 mph - 0.00 in Rain Light Rain
8:51 PM 41.0 °F 38.0 °F 37.4 °F 87% 29.44 in 10.0 mi South 4.6 mph - 0.02 in Rain Light Rain
8:53 PM 41.0 °F 39.0 °F 37.0 °F 86% 29.45 in 10.0 mi South 3.5 mph - 0.02 in Rain Light Rain
9:32 PM 41.0 °F - 37.4 °F 87% 29.45 in 10.0 mi Calm Calm - 0.01 in Rain Light Rain
9:43 PM 41.0 °F 38.0 °F 37.4 °F 87% 29.45 in 10.0 mi SSE 4.6 mph - 0.01 in Rain Light Rain
9:53 PM 41.0 °F 38.0 °F 37.9 °F 89% 29.45 in 10.0 mi SSE 4.6 mph - 0.01 in Rain Light Rain
10:53 PM 41.0 °F 39.0 °F 37.9 °F 89% 29.46 in 10.0 mi South 3.5 mph - 0.01 in Rain Light Rain
11:53 PM 41.0 °F 38.0 °F 37.9 °F 89% 29.45 in 10.0 mi South 4.6 mph - 0.00 in Rain Light Rain